Lexington Weather

Lexington, Massachusetts, USA

40°F
3/30/2020 9:18am 
  • Lexington Conditions: Mist, Overcast
  • Temperature: 39.9°F / 4.4°CWarmer 0.5°F than last hour.
  • Dew Point: 39.2°FIncreased 0.5°Fsince last hour.
  • Relative Humidity: 97
  • Wind: Wind from N N 4 mph, 10-min avg: 2 mph, gust: 6 mph
  • Barometer: 29.97 in Steady
  • Visibility: 2 miles
  • Rain Today: 0.02 in
  •   

Regional Weather Roundup
for Boston / Norton, MA

        
000
ASUS41 KBOX 290704
RWRBOX

REGIONAL WEATHER ROUNDUP
NATIONAL WEATHER SERVICE BOSTON/NORTON MA
300 AM EDT SUN MAR 29 2020

NOTE:  "FAIR" INDICATES FEW OR NO CLOUDS BELOW 12,000 FEET WITH NO 
SIGNIFICANT WEATHER AND/OR OBSTRUCTIONS TO VISIBILITY.

MAZALL-290800-
EASTERN MASSACHUSETTS
  
CITY           SKY/WX    TMP DP  RH WIND       PRES   REMARKS
BOSTON         LGT RAIN  42  40  92 E8        30.15S FOG              
BEVERLY        LGT RAIN  42  40  92 E5        30.16R FOG              
LAWRENCE       LGT RAIN  42  41  96 NE6       30.17S FOG              
BEDFORD        LGT RAIN  44  40  85 E5        30.14S FOG              
BLUE HILL        N/A     41  41 100 E10       30.11S                  
NORWOOD        CLOUDY    45  41  86 NE3       30.14S FOG              
MARSHFIELD     MIX PCPN  45  45 100 E9G15     30.14S                  
PLYMOUTH       LGT RAIN  43  41  93 E10       30.13S                  
TAUNTON        LGT RAIN  43  42  97 E5        30.12S FOG              
NEW BEDFORD    LGT RAIN  42  42 100 E8        30.11F FOG              
$$

MAZALL-290800-
CAPE COD AND THE ISLANDS
  
CITY           SKY/WX    TMP DP  RH WIND       PRES   REMARKS
FALMOUTH       CLOUDY    43  41  93 E6        30.12F FOG              
HYANNIS        CLOUDY    45  41  86 E9        30.11F                  
CHATHAM        CLOUDY    43  40  89 SE8       30.15F                  
PROVINCETOWN   CLOUDY    43  41  93 E8        30.16F                  
NANTUCKET      CLOUDY    45  43  93 E15       30.11F                  
MARTHAS VNYRD  LGT RAIN  45  43  93 E16G23    30.10F FOG              
$$
 
MAZALL-290800-
CENTRAL AND WESTERN MASSACHUSETTS
  
CITY           SKY/WX    TMP DP  RH WIND       PRES   REMARKS
WORCESTER      LGT RAIN  42  40  92 VRB7      30.11R VSB 3/4          
FITCHBURG      LGT RAIN  43  40  89 CALM      30.15R FOG              
ORANGE         CLOUDY    43  41  93 NW5       30.12S FOG              
SPRINGFIELD    LGT RAIN  42  42  99 NE5       30.09S FOG              
WESTFIELD      LGT RAIN  41  40  96 N5        30.10F FOG              
NORTH ADAMS    LGT RAIN  42  39  89 E16       30.07S                  
PITTSFIELD     LGT RAIN  41  38  89 NE8       30.05S FOG              
$$
 
RIZALL-290800-
RHODE ISLAND
  
CITY           SKY/WX    TMP DP  RH WIND       PRES   REMARKS
PROVIDENCE     LGT RAIN  44  43  96 E7        30.11F FOG              
NEWPORT        LGT RAIN  45  42  89 E13G23    30.09F FOG              
BLOCK ISLAND   LGT RAIN  43  42  97 E15G22    30.07F                  
SMITHFIELD     LGT RAIN  42  42 100 E8        30.11S FOG              
WESTERLY       LGT RAIN  47  42  83 NE15G28   30.07F                  
$$
 
CTZALL-290800-
CONNECTICUT
  
CITY           SKY/WX    TMP DP  RH WIND       PRES   REMARKS
BRADLEY INTL   LGT RAIN  42  41  96 N9        30.10R FOG              
HARTFORD       LGT RAIN  44  42  93 N7        30.10R FOG              
BRIDGEPORT     LGT RAIN  46  44  93 E20       30.04F FOG              
DANBURY        CLOUDY    44  42  93 E7        30.05F FOG              
GROTON         LGT RAIN  45  45 100 E16G23    30.07S FOG              
NEW HAVEN      CLOUDY    46  45  96 NE8       30.05F FOG              
CHESTER        LGT RAIN  45  45 100 NE7G13    30.06F                  
MERIDEN        LGT RAIN  44  42  93 N5        30.07F FOG              
WILLIMANTIC    LGT RAIN  44  43  96 CALM      30.10R FOG              
OXFORD         LGT RAIN  42  42 100 NE10      30.05F FOG              
$$

MEZ002-015-021-024-NHZ003-005-008-011-012-014-VTZ005-008-290800-
NORTHERN NEW ENGLAND
  
CITY           SKY/WX    TMP DP  RH WIND       PRES   REMARKS
PORTLAND ME    MOCLDY    43  37  79 E5        30.19S                  
BANGOR ME      CLOUDY    38  28  67 S3        30.21F                  
CONCORD NH     LGT RAIN  41  38  89 CALM      30.16S                  
MANCHESTER NH  LGT RAIN  44  41  89 N5        30.15R FOG              
NASHUA NH      LGT RAIN  43  43 100 CALM      30.16S FOG              
PORTSMOUTH NH  LGT RAIN  42  40  94 E5        30.16S                  
JAFFREY NH     LGT RAIN  43  42  97 CALM      30.12S FOG              
KEENE NH       LGT RAIN  41  40  96 N5        30.13S FOG              
BURLINGTON VT  CLOUDY    47  29  49 SW3       30.09S                  
MT. WASHINGTON CLOUDY    28   0  29 SE18        N/A  WCI  16          
$$

NYZ052-076-290800-
EASTERN NEW YORK
  
CITY           SKY/WX    TMP DP  RH WIND       PRES   REMARKS
ALBANY         DRIZZLE   43  40  89 CALM      30.06F FOG              
NEW YORK CITY  LGT RAIN  45  42  89 NE21      30.01F FOG              
$$
 
ANZALL-290800-
MARINE OBSERVATIONS
  
STATION/POSITION TIME  TEMP    WIND        PRES    VSBY  WAVE
                       AIR SEA DIR/SP/G                  HT/PER
                 (UTC) (F)     (DEG/KT/KT) (MB)    (MI)  (FT/S)
BOSTON BUOY      0650   42 43   90/ 10/ 12 1020.3F         1/ 9
BUZZARDS BAY     0600           80/ 18/ 20 1020.3F
NANTUCKET SOUND  0640                        N/A           2/ 3
MASS BAY-STELLWA 0604   42 42  150/  6/  8 1019.4F  1 7/8  1/ 3
ISLE OF SHOALS   0600   42     160/  7/  8 1021.6F
S OF BLOCK IS    0630      44                N/A           5/ 5
$$

......................KEY.........................
  SKY/WX - SKY CONDITION/PRESENT WEATHER
  TMP    - TEMPERATURE IN FAHRENHEIT
  DWPT   - DEWPOINT IN FAHRENHEIT
  RH     - RELATIVE HUMIDITY IN PERCENT
  WIND   - DIRECTION AND SPEED IN MPH
  PRES   - MEAN SEA LEVEL PRESSURE IN INCHES OF HG
  WCI    - WIND CHILL INDEX
  VSB    - VISIBILITY IN MILES
  HX     - HEAT INDEX
  TC     - TEMPERATURE IN CELSIUS
  VRB    - VARIABLE WIND DIRECTION
  N/A    - NOT AVAILABLE
  
      

Other recent Regional Weather Roundups

Mon Mar 30, 9:04am

Mon Mar 30, 8:04am

Mon Mar 30, 7:04am

Mon Mar 30, 6:04am

Mon Mar 30, 5:04am

Mon Mar 30, 4:04am

Mon Mar 30, 3:05am

Mon Mar 30, 2:04am

Mon Mar 30, 1:04am

Mon Mar 30, 12:04am

Sun Mar 29, 11:04pm

Sun Mar 29, 10:05pm

Sun Mar 29, 9:04pm

Sun Mar 29, 8:04pm

Sun Mar 29, 7:04pm

Sun Mar 29, 6:04pm

Sun Mar 29, 5:05pm

Sun Mar 29, 4:04pm

Sun Mar 29, 3:04pm

Sun Mar 29, 2:04pm

Sun Mar 29, 1:05pm

Sun Mar 29, 12:04pm

Sun Mar 29, 11:04am

Sun Mar 29, 10:04am

Sun Mar 29, 9:04am

Sun Mar 29, 8:04am

Sun Mar 29, 7:04am

Sun Mar 29, 6:04am

Sun Mar 29, 5:04am

Sun Mar 29, 4:04am

Sun Mar 29, 2:04am

Sun Mar 29, 1:04am

Sun Mar 29, 12:04am

Sat Mar 28, 11:05pm

Sat Mar 28, 10:04pm

Sat Mar 28, 9:04pm

Sat Mar 28, 8:04pm

Sat Mar 28, 7:04pm

Sat Mar 28, 6:04pm

Sat Mar 28, 5:05pm

Sat Mar 28, 4:04pm

Sat Mar 28, 3:04pm

Sat Mar 28, 2:04pm

Sat Mar 28, 1:05pm

Sat Mar 28, 12:04pm

Sat Mar 28, 11:04am

Sat Mar 28, 10:04am

Sat Mar 28, 9:04am

Sat Mar 28, 8:04am

Sat Mar 28, 7:04am

Sat Mar 28, 6:04am

Sat Mar 28, 5:04am

Sat Mar 28, 4:04am

Sat Mar 28, 3:04am

Sat Mar 28, 2:04am

Sat Mar 28, 1:04am

Sat Mar 28, 12:04am

Fri Mar 27, 11:04pm

Fri Mar 27, 10:04pm

Fri Mar 27, 9:04pm

Fri Mar 27, 8:04pm

Fri Mar 27, 7:05pm

Fri Mar 27, 6:04pm

Fri Mar 27, 5:05pm

Fri Mar 27, 4:05pm

Fri Mar 27, 3:04pm

Fri Mar 27, 2:05pm

Fri Mar 27, 1:04pm

Fri Mar 27, 12:04pm

Fri Mar 27, 11:04am

Fri Mar 27, 10:04am

Meta data:

ID: a5ef4b6d-a852-467e-ba53-454d540caa6c
Link: https://api.weather.gov/products/a5ef4b6d-a852-467e-ba53-454d540caa6c